This demonstration page uses our WeatherBlox Daily Observations layout. Learn more.

Left ArrowRight Arrow

40.92945, -100.16068

Hourly Observations for February 17, 2015

Temp ( °F °C ) Dew Point ( °F °C ) Humidity (%) Winds ( mph kmh ) Pressure ( in mb ) Visibility ( mi km ) Precip ( " mm )
12:15 am 00:15 Mostly Cloudy 31 -0.6 26 -3.1 83 83 NW 15 24 30.21 1023 10 16 N/A
12:35 am 00:35 Cloudy 29 -1.5 26 -3.5 86 86 NW 9 15 30.21 1023 10 16 N/A
12:55 am 00:55 Cloudy 29 -1.5 26 -3.3 88 88 NNW 7 11 30.21 1023 10 16 N/A
1:15 am 01:15 Cloudy 30 -1 27 -2.7 88 88 NNW 7 11 30.21 1023 10 16 N/A
1:35 am 01:35 Cloudy 30 -1 26 -3.1 86 86 NW 10 17 30.21 1023 10 16 N/A
2:15 am 02:15 Cloudy 29 -1.5 25 -3.8 85 85 NW 15 24 30.21 1023 10 16 N/A
2:35 am 02:35 Mostly Cloudy 28 -2.2 24 -4.5 84 84 WNW 8 13 30.21 1023 10 16 N/A
2:55 am 02:55 Mostly Cloudy 27 -2.7 24 -4.6 87 87 NW 9 15 30.21 1023 10 16 N/A
3:15 am 03:15 Partly Cloudy 25 -3.8 22 -5.7 87 87 NNW 6 9 30.21 1023 10 16 N/A
3:35 am 03:35 Clear 23 -4.9 20 -6.5 89 89 WNW 8 13 30.24 1024 10 16 N/A
3:55 am 03:55 Clear 21 -5.9 19 -7.2 91 91 WNW 8 13 30.24 1024 10 16 N/A
4:15 am 04:15 Clear 22 -5.7 19 -7.1 90 90 W 7 11 30.24 1024 10 16 N/A
4:35 am 04:35 Clear 21 -6.2 18 -7.6 90 90 W 7 11 30.21 1023 10 16 N/A
4:55 am 04:55 Clear 20 -6.6 18 -8 90 90 W 7 11 30.21 1023 10 16 N/A
5:15 am 05:15 Clear 19 -7.4 16 -8.8 90 90 W 8 13 30.21 1023 10 16 N/A
5:35 am 05:35 Clear 20 -6.8 17 -8.6 87 87 W 8 13 30.21 1023 10 16 N/A
5:55 am 05:55 Clear 20 -6.4 17 -8.2 87 87 W 9 15 30.21 1023 10 16 N/A
6:15 am 06:15 Partly Cloudy 20 -6.6 17 -8.5 87 87 WSW 6 9 30.21 1023 10 16 N/A
6:35 am 06:35 Mostly Cloudy 19 -7.2 16 -9 87 87 WSW 6 9 30.21 1023 10 16 N/A
6:55 am 06:55 Mostly Cloudy 22 -5.3 19 -7.1 87 87 W 7 11 30.21 1023 10 16 N/A
7:15 am 07:15 Mostly Cloudy 24 -4.3 20 -6.5 85 85 W 7 11 30.18 1022 10 16 N/A
7:35 am 07:35 Mostly Cloudy 24 -4.3 20 -6.5 85 85 WSW 5 7 30.18 1022 10 16 N/A
7:55 am 07:55 Partly Cloudy 25 -4.1 22 -5.7 89 89 WSW 10 17 30.18 1022 10 16 N/A
8:15 am 08:15 Mostly Cloudy 27 -2.8 24 -4.6 88 88 W 10 17 30.18 1022 10 16 N/A
8:35 am 08:35 Mostly Cloudy 28 -2.5 24 -4.3 88 88 W 14 22 30.18 1022 10 16 N/A
8:55 am 08:55 Cloudy 29 -1.4 26 -3.6 85 85 W 16 26 30.15 1021 10 16 N/A
9:15 am 09:15 Cloudy 31 -0.7 25 -3.9 79 79 NNW 23 37 30.15 1021 10 16 N/A
9:35 am 09:35 Cloudy 26 -3.1 21 -5.9 81 81 N 30 48 30.21 1023 10 16 N/A
9:55 am 09:55 Cloudy 23 -5 18 -7.6 82 82 N 24 39 30.27 1025 10 16 N/A
10:15 am 10:15 Cloudy 23 -5.2 17 -8.2 80 80 N 16 26 30.27 1025 7 11 N/A
10:35 am 10:35 Cloudy 23 -5.1 18 -8 80 80 N 16 26 30.27 1025 10 16 N/A
10:55 am 10:55 Cloudy 22 -5.3 14 -10 70 70 N 25 41 30.30 1026 10 16 N/A
11:15 am 11:15 Cloudy 22 -5.5 14 -10.1 70 70 N 20 31 30.30 1026 10 16 N/A
11:35 am 11:35 Mostly Cloudy 24 -4.7 14 -10 67 67 N 21 33 30.30 1026 10 16 N/A
11:55 am 11:55 Partly Cloudy 25 -4.1 12 -10.9 60 60 NNW 22 35 30.27 1025 10 16 N/A
12:15 pm 12:15 Partly Cloudy 24 -4.2 12 -11.2 59 59 NNW 22 35 30.27 1025 10 16 N/A
12:35 pm 12:35 Partly Cloudy 25 -4 10 -12 54 54 NNW 24 39 30.27 1025 10 16 N/A
12:55 pm 12:55 Sunny 26 -3.6 9 -13 49 49 NNW 21 33 30.24 1024 10 16 N/A
1:15 pm 13:15 Sunny 25 -3.9 6 -14.2 45 45 NNW 31 50 30.24 1024 10 16 N/A
1:35 pm 13:35 Sunny 26 -3.3 8 -13.4 46 46 NW 29 46 30.24 1024 10 16 N/A
1:55 pm 13:55 Sunny 27 -2.8 8 -13.2 45 45 NNW 23 37 30.24 1024 10 16 N/A
2:15 pm 14:15 Sunny 28 -2.4 8 -13.4 43 43 NNW 23 37 30.24 1024 10 16 N/A
2:35 pm 14:35 Sunny 28 -2.3 8 -13.1 44 44 NNW 29 46 30.24 1024 10 16 N/A
2:55 pm 14:55 Sunny 29 -1.8 9 -12.8 43 43 NNW 24 39 30.21 1023 10 16 N/A
3:15 pm 15:15 Partly Cloudy 29 -1.6 6 -14.3 38 38 NW 29 46 30.21 1023 10 16 N/A
3:35 pm 15:35 Sunny 29 -1.8 8 -13.6 40 40 NNW 22 35 30.21 1023 10 16 N/A
3:55 pm 15:55 Sunny 29 -1.6 7 -14.1 38 38 NNW 23 37 30.21 1023 10 16 N/A
4:15 pm 16:15 Sunny 29 -1.7 5 -15 36 36 NW 30 48 30.21 1023 10 16 N/A
4:35 pm 16:35 Sunny 29 -1.8 5 -14.8 37 37 NNW 26 43 30.21 1023 10 16 N/A
4:55 pm 16:55 Sunny 29 -1.8 6 -14.5 38 38 NNW 23 37 30.18 1022 10 16 N/A
5:15 pm 17:15 Sunny 28 -2.1 6 -14.3 39 39 NNW 21 33 30.18 1022 10 16 N/A
5:35 pm 17:35 Sunny 27 -2.6 8 -13.6 43 43 NNW 18 30 30.18 1022 10 16 N/A
5:55 pm 17:55 Sunny 27 -3 8 -13.5 45 45 NNW 13 20 30.18 1022 10 16 N/A
6:15 pm 18:15 Sunny 25 -3.7 8 -13.1 48 48 NNW 13 20 30.18 1022 10 16 N/A
6:35 pm 18:35 Clear 24 -4.2 9 -12.6 52 52 NNW 10 17 30.18 1022 10 16 N/A
6:55 pm 18:55 Clear 23 -4.8 10 -12.1 57 57 NNW 10 17 30.21 1023 10 16 N/A
7:15 pm 19:15 Clear 24 -4.7 10 -12 57 57 NNW 12 19 30.21 1023 10 16 N/A
7:35 pm 19:35 Clear 23 -4.8 11 -11.8 58 58 NNW 15 24 30.24 1024 10 16 N/A
7:55 pm 19:55 Clear 22 -5.3 11 -11.7 61 61 NNW 14 22 30.24 1024 10 16 N/A
8:15 pm 20:15 Clear 22 -5.5 10 -12 61 61 NNW 12 19 30.24 1024 10 16 N/A
8:35 pm 20:35 Mostly Cloudy 22 -5.6 10 -12.3 60 60 NNW 13 20 30.24 1024 10 16 N/A
8:55 pm 20:55 Partly Cloudy 22 -5.5 8 -13.3 55 55 NNW 16 26 30.24 1024 10 16 N/A
9:15 pm 21:15 Mostly Cloudy 22 -5.5 6 -14.2 51 51 NNW 21 33 30.24 1024 10 16 N/A
9:35 pm 21:35 Mostly Cloudy 22 -5.5 6 -14.5 50 50 NNW 15 24 30.24 1024 10 16 N/A
9:55 pm 21:55 Cloudy 22 -5.5 7 -14.1 51 51 NW 14 22 30.27 1025 10 16 N/A
10:15 pm 22:15 Partly Cloudy 21 -6.3 7 -14 55 55 NNW 10 17 30.27 1025 10 16 N/A
10:35 pm 22:35 Clear 19 -7 7 -13.8 59 59 NNW 9 15 30.27 1025 10 16 N/A
10:55 pm 22:55 Clear 18 -7.7 7 -13.8 62 62 NW 8 13 30.30 1026 10 16 N/A
11:15 pm 23:15 Clear 18 -7.9 8 -13.5 64 64 NW 9 15 30.30 1026 10 16 N/A
11:35 pm 23:35 Clear 17 -8.1 8 -13.5 65 65 WNW 9 15 30.30 1026 10 16 N/A
11:55 pm 23:55 Clear 18 -7.8 8 -13.5 64 64 NW 13 20 30.30 1026 10 16 N/A

Powered by AerisWeather